Tracking 19832 objects as of 25-Aug-2019
HD Live streaming from Space Station
objects crossing your sky now

METEOR 2-5 DEB

Track METEOR 2-5 DEB now!
10-day predictions


NORAD ID: 28596
Int'l Code: 1979-095G
Perigee: 714.6 km
Apogee: 729.4 km
Inclination: 81.2 °
Period: 99.1 minutes
Semi major axis: 7092 km
RCS: 0.0109 m2 (small)
Launch date: October 31, 1979
Source: Commonwealth of Independent States (former USSR) (CIS)
Launch site: PLESETSK MISSILE AND SPACE COMPLEX (PKMTR)

Note: This is SATELLITE DEBRIS
aabbcc
Your satellite tracking list
Your tracking list is empty




NASA's NSSDC Master Catalog

Two Line Element Set (TLE):
1 28596U 79095G   19234.41772773 +.00001720 +00000-0 +41051-3 0  9991
2 28596 081.1950 275.1128 0010436 065.3638 294.8642 14.53323420789351
Source of the keplerian elements: AFSPC